KD0MAC Weather Reports


Display with metric or nautical units.
time (UTC)temp
F
wind
direction
speed
MPH
gust
MPH
rain 1hr
in
rain 24hr
in
rain mn
in
humidity
%
barometer
mb
20260504221139 81 83 3.0 8.0 0.00 0.00 0.00 23 1002.4
20260504220633 82 84 2.0 8.0 0.00 0.00 0.00 23 1002.4
20260504220133 82 107 2.0 7.0 0.00 0.00 0.00 23 1002.4
20260504215633 82 123 3.0 8.0 0.00 0.00 0.00 22 1002.4
20260504215133 83 114 1.0 7.0 0.00 0.00 0.00 22 1002.4
20260504214633 84 183 4.0 7.0 0.00 0.00 0.00 22 1002.7
20260504214135 84 79 3.0 7.0 0.00 0.00 0.00 21 1002.7
20260504213633 85 103 3.0 7.0 0.00 0.00 0.00 20 1002.7
20260504213134 86 122 3.0 7.0 0.00 0.00 0.00 20 1002.7
20260504212633 87 96 2.0 9.0 0.00 0.00 0.00 19 1002.7
20260504212137 88 86 2.0 9.0 0.00 0.00 0.00 19 1002.7
20260504211633 89 121 5.0 9.0 0.00 0.00 0.00 19 1002.7
20260504211135 89 132 4.0 7.0 0.00 0.00 0.00 17 1002.7
20260504210633 90 66 3.0 8.0 0.00 0.00 0.00 18 1002.7
20260504210133 89 82 5.0 8.0 0.00 0.00 0.00 18 1002.7
20260504205633 89 35 4.0 8.0 0.00 0.00 0.00 20 1003.0
20260504205134 89 111 3.0 8.0 0.00 0.00 0.00 18 1003.0
20260504204634 89 114 2.0 7.0 0.00 0.00 0.00 18 1002.7
20260504204134 89 172 2.0 8.0 0.00 0.00 0.00 19 1003.0
20260504203634 88 128 4.0 8.0 0.00 0.00 0.00 18 1003.0
20260504203133 88 135 5.0 8.0 0.00 0.00 0.00 17 1003.0
20260504202634 90 128 1.0 4.0 0.00 0.00 0.00 17 1003.0
20260504202134 90 100 2.0 5.0 0.00 0.00 0.00 17 1003.4
20260504201633 89 131 3.0 4.0 0.00 0.00 0.00 18 1003.4
20260504201133 88 75 2.0 7.0 0.00 0.00 0.00 18 1003.4
20260504200634 88 119 2.0 7.0 0.00 0.00 0.00 18 1003.4
20260504200133 90 85 3.0 7.0 0.00 0.00 0.00 18 1003.4
20260504195633 90 105 2.0 7.0 0.00 0.00 0.00 17 1003.4
20260504195134 89 120 3.0 9.0 0.00 0.00 0.00 18 1003.4
20260504194633 89 87 1.0 4.0 0.00 0.00 0.00 19 1003.4
20260504194134 89 136 2.0 5.0 0.00 0.00 0.00 18 1003.7
20260504193633 89 64 2.0 5.0 0.00 0.00 0.00 18 1003.4
20260504193133 89 151 3.0 5.0 0.00 0.00 0.00 19 1003.7
20260504192633 90 86 3.0 4.0 0.00 0.00 0.00 17 1003.7
20260504192135 91 101 1.0 3.0 0.00 0.00 0.00 17 1003.7
20260504191634 91 105 2.0 3.0 0.00 0.00 0.00 16 1003.7
20260504191133 91 77 2.0 6.0 0.00 0.00 0.00 17 1004.1
20260504190633 90 32 2.0 6.0 0.00 0.00 0.00 18 1004.1
20260504190135 90 105 3.0 6.0 0.00 0.00 0.00 18 1004.1
20260504185635 89 31 2.0 4.0 0.00 0.00 0.00 18 1004.1
20260504185133 87 82 1.0 4.0 0.00 0.00 0.00 20 1004.1
20260504184634 86 55 2.0 4.0 0.00 0.00 0.00 19 1004.4
20260504184133 85 8 2.0 4.0 0.00 0.00 0.00 21 1004.4
20260504183635 85 76 0.0 4.0 0.00 0.00 0.00 22 1004.4
20260504183134 85 233 1.0 5.0 0.00 0.00 0.00 21 1004.4
20260504182636 85 83 0.0 5.0 0.00 0.00 0.00 22 1004.4
20260504182133 85 93 0.0 2.0 0.00 0.00 0.00 22 1004.4
20260504181636 86 67 0.0 3.0 0.00 0.00 0.00 22 1004.4
20260504181136 86 161 1.0 3.0 0.00 0.00 0.00 22 1004.4
20260504180634 87 86 2.0 4.0 0.00 0.00 0.00 21 1004.7
20260504180134 87 84 2.0 4.0 0.00 0.00 0.00 20 1004.7
20260504175635 86 63 2.0 5.0 0.00 0.00 0.00 20 1004.7
20260504175134 87 278 2.0 4.0 0.00 0.00 0.00 20 1004.7
20260504174635 88 295 2.0 5.0 0.00 0.00 0.00 19 1004.7
20260504174136 89 267 1.0 5.0 0.00 0.00 0.00 20 1004.7
20260504173634 88 21 1.0 4.0 0.00 0.00 0.00 21 1004.7
20260504173135 86 151 1.0 4.0 0.00 0.00 0.00 20 1004.7
20260504172635 85 0 3.0 4.0 0.00 0.00 0.00 22 1004.7
20260504172133 84 67 0.0 4.0 0.00 0.00 0.00 23 1005.1
20260504171635 84 70 2.0 5.0 0.00 0.00 0.00 21 1005.1
20260504171134 85 291 2.0 5.0 0.00 0.00 0.00 21 1005.1
20260504170634 86 89 2.0 6.0 0.00 0.00 0.00 21 1005.1
20260504170133 86 126 3.0 6.0 0.00 0.00 0.00 22 1005.1
20260504160134 80 324 4.0 7.0 0.00 0.00 0.00 27 1005.1
20260504151133 72 320 4.0 7.0 0.00 0.00 0.00 36 1005.1
20260504150634 72 89 3.0 7.0 0.00 0.00 0.00 36 1005.1
20260504150134 70 330 4.0 9.0 0.00 0.00 0.00 38 1005.4
20260504141134 61 44 7.0 12.0 0.00 0.00 0.00 50 1005.4
20260504140637 60 294 6.0 9.0 0.00 0.00 0.00 51 1005.4
20260504140138 60 12 5.0 8.0 0.00 0.00 0.00 53 1005.4
20260504130636 55 279 3.0 6.0 0.00 0.00 0.00 62 1004.4
20260504130135 54 11 1.0 3.0 0.00 0.00 0.00 63 1004.4
20260504120133 49 42 1.0 5.0 0.00 0.00 0.00 67 1004.1
20260504110634 48 75 0.0 0.0 0.00 0.00 0.00 71 1004.1
20260504110134 48 86 0.0 1.0 0.00 0.00 0.00 70 1004.1
20260504100135 50 83 0.0 2.0 0.00 0.00 0.00 66 1004.7
20260504090133 52 309 1.0 2.0 0.00 0.00 0.00 63 1005.1
20260504081633 53 78 0.0 2.0 0.00 0.00 0.00 61 1005.1
20260504081133 53 34 1.0 3.0 0.00 0.00 0.00 62 1005.4
20260504080634 53 90 0.0 1.0 0.00 0.00 0.00 61 1005.4
20260504080134 53 10 0.0 1.0 0.00 0.00 0.00 60 1005.4
20260504070134 56 90 0.0 0.0 0.00 0.00 0.00 52 1005.4
20260504060133 58 72 0.0 1.0 0.00 0.00 0.00 48 1006.1
20260504050637 61 84 1.0 3.0 0.00 0.00 0.00 42 1006.4
20260504050134 61 80 0.0 2.0 0.00 0.00 0.00 42 1006.4
20260504045634 61 80 1.0 2.0 0.00 0.00 0.00 42 1006.4
20260504045134 61 95 0.0 0.0 0.00 0.00 0.00 42 1006.4
20260504044633 62 98 0.0 2.0 0.00 0.00 0.00 42 1006.8
20260504044136 62 132 0.0 2.0 0.00 0.00 0.00 42 1006.8
20260504043635 62 100 0.0 1.0 0.00 0.00 0.00 41 1006.8
20260504043133 62 68 0.0 2.0 0.00 0.00 0.00 41 1006.8
20260504042634 62 111 1.0 2.0 0.00 0.00 0.00 41 1006.8
20260504042134 63 110 0.0 1.0 0.00 0.00 0.00 40 1007.1
20260504041633 63 67 0.0 2.0 0.00 0.00 0.00 40 1007.1
20260504041134 64 112 1.0 2.0 0.00 0.00 0.00 39 1007.1
20260504040633 64 112 1.0 2.0 0.00 0.00 0.00 38 1007.1
20260504040136 64 87 1.0 2.0 0.00 0.00 0.00 38 1007.1
20260504035633 64 14 1.0 3.0 0.00 0.00 0.00 38 1007.1
20260504035133 65 131 1.0 4.0 0.00 0.00 0.00 37 1007.1
20260504034633 65 57 1.0 3.0 0.00 0.00 0.00 37 1007.1
20260504034134 65 101 1.0 3.0 0.00 0.00 0.00 37 1007.5
20260504033633 65 62 1.0 3.0 0.00 0.00 0.00 37 1007.1
20260504033134 65 78 2.0 4.0 0.00 0.00 0.00 37 1007.1
20260504032633 65 83 2.0 3.0 0.00 0.00 0.00 37 1007.1
20260504032134 65 78 1.0 3.0 0.00 0.00 0.00 36 1007.5
20260504031633 65 61 1.0 3.0 0.00 0.00 0.00 36 1007.5
20260504031134 66 83 1.0 3.0 0.00 0.00 0.00 36 1007.5
20260504030633 66 79 2.0 4.0 0.00 0.00 0.00 36 1007.5
20260504030133 66 95 2.0 3.0 0.00 0.00 0.00 36 1007.5
20260504025633 66 79 2.0 3.0 0.00 0.00 0.00 36 1007.5
20260504025133 66 83 1.0 3.0 0.00 0.00 0.00 36 1007.5
20260504024633 66 45 2.0 4.0 0.00 0.00 0.00 36 1007.5
20260504024134 66 60 2.0 6.0 0.00 0.00 0.00 36 1007.5
20260504023634 66 100 3.0 6.0 0.00 0.00 0.00 36 1007.5
20260504023134 66 86 1.0 3.0 0.00 0.00 0.00 36 1007.5
20260504022634 67 95 1.0 4.0 0.00 0.00 0.00 35 1007.5
20260504022133 67 83 1.0 3.0 0.00 0.00 0.00 35 1007.5
20260504021634 67 113 2.0 3.0 0.00 0.00 0.00 35 1007.5
20260504021133 67 48 1.0 3.0 0.00 0.00 0.00 34 1007.5
20260504020633 68 88 1.0 3.0 0.00 0.00 0.00 34 1007.5
20260504020133 68 51 1.0 4.0 0.00 0.00 0.00 33 1007.5
20260504015634 69 81 2.0 4.0 0.00 0.00 0.00 33 1007.5
20260504015133 69 88 2.0 4.0 0.00 0.00 0.00 32 1007.5
20260504014633 70 75 2.0 4.0 0.00 0.00 0.00 31 1007.5
20260504014133 70 84 3.0 5.0 0.00 0.00 0.00 31 1007.1
20260504013641 71 67 2.0 4.0 0.00 0.00 0.00 30 1007.1
20260504013134 71 72 2.0 4.0 0.00 0.00 0.00 30 1007.1
20260504012633 72 57 2.0 4.0 0.00 0.00 0.00 29 1007.1
20260504012134 72 59 1.0 5.0 0.00 0.00 0.00 28 1007.1
20260504011634 73 83 2.0 3.0 0.00 0.00 0.00 28 1007.1
20260504011133 73 66 2.0 3.0 0.00 0.00 0.00 28 1007.1
20260504010634 74 107 1.0 3.0 0.00 0.00 0.00 27 1007.1
20260504010134 75 118 2.0 7.0 0.00 0.00 0.00 27 1007.1
20260504005633 75 57 3.0 7.0 0.00 0.00 0.00 26 1007.1
20260504005134 76 86 2.0 4.0 0.00 0.00 0.00 26 1007.1
20260504004633 77 271 2.0 5.0 0.00 0.00 0.00 25 1007.1
20260504004133 77 80 2.0 7.0 0.00 0.00 0.00 25 1007.1
20260504003633 78 64 2.0 7.0 0.00 0.00 0.00 25 1007.1
20260504003133 78 85 3.0 7.0 0.00 0.00 0.00 25 1007.1
20260504002634 79 51 3.0 5.0 0.00 0.00 0.00 24 1007.1
20260504002133 79 34 1.0 5.0 0.00 0.00 0.00 25 1007.1
20260504001634 79 169 3.0 7.0 0.00 0.00 0.00 25 1007.1
20260504001134 80 35 4.0 7.0 0.00 0.00 0.00 24 1007.1
20260504000634 80 7 3.0 6.0 0.00 0.00 0.00 24 1007.1
20260504000134 81 89 3.0 6.0 0.00 0.00 0.00 23 1007.1
20260503235633 82 104 3.0 6.0 0.00 0.00 0.00 22 1007.1
20260503235134 83 93 4.0 6.0 0.00 0.00 0.00 21 1007.1
20260503234634 82 116 2.0 6.0 0.00 0.00 0.00 22 1007.1
20260503234133 82 62 4.0 7.0 0.00 0.00 0.00 22 1007.1
20260503233633 82 61 4.0 6.0 0.00 0.00 0.00 21 1007.1
20260503233133 83 90 4.0 7.0 0.00 0.00 0.00 21 1007.1
20260503232633 84 3 5.0 7.0 0.00 0.00 0.00 21 1007.1
20260503232133 84 32 4.0 7.0 0.00 0.00 0.00 20 1007.1
20260503231633 85 91 2.0 4.0 0.00 0.00 0.00 20 1007.1
20260503231133 85 74 3.0 5.0 0.00 0.00 0.00 19 1007.1
20260503230633 85 70 2.0 5.0 0.00 0.00 0.00 19 1007.1
20260503230133 86 49 3.0 7.0 0.00 0.00 0.00 19 1006.8
20260503225633 86 39 4.0 7.0 0.00 0.00 0.00 19 1007.1
20260503225133 86 42 2.0 5.0 0.00 0.00 0.00 18 1006.8
20260503224633 87 105 3.0 6.0 0.00 0.00 0.00 17 1007.1
20260503224133 86 134 3.0 5.0 0.00 0.00 0.00 17 1007.1
20260503223634 87 47 1.0 5.0 0.00 0.00 0.00 17 1007.1
20260503223134 87 82 2.0 6.0 0.00 0.00 0.00 17 1007.1
20260503222634 87 57 2.0 4.0 0.00 0.00 0.00 17 1007.5
20260503222134 87 122 2.0 7.0 0.00 0.00 0.00 16 1007.1
20260503221634 87 110 3.0 7.0 0.00 0.00 0.00 16 1007.5